SES-5

Last updated on Fri Jul 11 2025 00:02:43 GMT+0000 (Coordinated Universal Time)

1 38652U 12036A 25191.28266994 .00000047 00000+0 00000+0 0 9999 2 38652 0.0309 346.7421 0002279 112.0397 296.4056 1.00270882 41047
UTC large
Height (km)
Speed (km/s)
/
Latitude / Longitude
Inclination (degrees)
Orbital Period (minutes)
Azimuth
Elevation
Range (km)
Doppler Factor

Next 0 passes for location: London (51.5072 / 0.1276)

Sorry there are no passes over London.